Morris, IL

12:11 AM CDT on March 24, 2017 (GMT -0500)
Morris

Weather History for KC09 - September, 2013

Change the Weather History Date:

Sunday, September 29, 2013

  Actual Average (KARR) Record (KARR)
Temperature  
Mean Temperature 58 °F -  
Max Temperature 71 °F 67 °F 85 °F (2002)
Min Temperature 46 °F 42 °F 34 °F (2006)
Degree Days  
Heating Degree Days 6    
Growing Degree Days 8 (Base 50)    
Moisture  
Dew Point 47 °F    
Average Humidity 70    
Maximum Humidity 100    
Minimum Humidity 26    
Precipitation  
Precipitation 0.19 in - - ()
Sea Level Pressure  
Sea Level Pressure 30.02 in    
Wind  
Wind Speed 5 mph (North)    
Max Wind Speed 13 mph    
Max Gust Speed 17 mph    
Visibility 9 miles    
Events Fog , Rain    
Averages and records for this station are not official NWS values.
T = Trace of Precipitation, MM = Missing Value Source: NWS Daily Summary

Daily Weather History Graph

Daily Weather History Graph

Search for Another Location

Airport or City:

Trip Planner

Search our weather history database for the weather conditions in past years. The results will help you decide how hot, cold, wet, or windy it might be!

Date:

Astronomy

Sep. 29, 2013 Rise Set
Actual Time 6:48 AM CDT 6:38 PM CDT
Civil Twilight 6:21 AM CDT 7:05 PM CDT
Nautical Twilight 5:48 AM CDT 7:38 PM CDT
Astronomical Twilight 5:16 AM CDT 8:10 PM CDT
Moon 1:26 AM CDT (9/29) 3:37 PM CDT (9/29)
Length of Visible Light 12h 44m
Length of Day
11h 49m
Waning Crescent, 27% of the Moon is Illuminated
Sep 29
Waning Crescent
Oct 4
New
Oct 11
First Quarter
Oct 18
Full
Oct 26
Last Quarter

Hourly Weather History & Observations

Time (CDT) Temp. Dew Point Humidity Pressure Visibility Wind Dir Wind Speed Gust Speed Precip Events Conditions
12:15 AM 66.4 °F 65.5 °F 97% 29.95 in 5.0 mi WNW 11.5 mph - 0.03 in Rain Heavy Rain
12:35 AM 64.6 °F 64.6 °F 100% 29.96 in 5.0 mi NW 9.2 mph - 0.08 in Rain Heavy Rain
12:55 AM 62.6 °F 62.6 °F 100% 29.97 in 7.0 mi NW 6.9 mph - 0.13 in Rain Rain
1:15 AM 61.9 °F 61.9 °F 100% 29.98 in 10.0 mi NNW 4.6 mph - 0.01 in Rain Rain
1:35 AM 61.5 °F 61.5 °F 100% 29.98 in 7.0 mi NW 12.7 mph 17.3 mph 0.03 in Rain Light Rain
1:55 AM 59.2 °F 59.0 °F 99% 29.99 in 7.0 mi NW 9.2 mph - 0.05 in Rain Rain
2:15 AM 58.3 °F 57.7 °F 98% 30.00 in 10.0 mi NNW 4.6 mph - N/A Rain Light Rain
2:35 AM 58.5 °F 58.1 °F 99% 30.00 in 10.0 mi NW 5.8 mph - 0.01 in   Mostly Cloudy
2:55 AM 57.6 °F 57.0 °F 98% 30.00 in 10.0 mi NW 3.5 mph - 0.01 in   Scattered Clouds
3:15 AM 56.8 °F 56.3 °F 98% 30.00 in 10.0 mi NNW 3.5 mph - N/A   Clear
3:35 AM 56.3 °F 55.8 °F 98% 30.01 in 10.0 mi NW 3.5 mph - N/A   Clear
3:55 AM 55.4 °F 55.0 °F 99% 30.01 in 10.0 mi Calm Calm - N/A   Clear
4:15 AM 54.9 °F 54.9 °F 100% 30.01 in 10.0 mi Calm Calm - N/A   Clear
4:35 AM 54.5 °F 54.5 °F 100% 30.01 in 10.0 mi Calm Calm - N/A   Clear
4:55 AM 53.8 °F 53.8 °F 100% 30.02 in 10.0 mi NNW 3.5 mph - N/A   Clear
5:15 AM 53.4 °F 53.4 °F 100% 30.02 in 10.0 mi NW 3.5 mph - N/A   Clear
5:35 AM 53.2 °F 53.2 °F 100% 30.02 in 10.0 mi Calm Calm - N/A   Clear
5:55 AM 52.7 °F 52.7 °F 100% 30.03 in 10.0 mi Calm Calm - N/A   Clear
6:15 AM 51.8 °F 51.8 °F 100% 30.03 in 10.0 mi Calm Calm - N/A   Clear
6:35 AM 48.7 °F 48.7 °F 100% 30.03 in 5.0 mi NW 3.5 mph - N/A   Clear
6:55 AM 48.2 °F 48.2 °F 100% 30.04 in 0.5 mi Calm Calm - N/A Fog Fog
7:15 AM 51.4 °F 51.4 °F 100% 30.04 in 0.2 mi NNW 3.5 mph - N/A Fog Fog
7:35 AM 52.2 °F 52.2 °F 100% 30.04 in 0.5 mi Calm Calm - N/A Fog Fog
7:55 AM 52.7 °F 52.7 °F 100% 30.04 in 0.8 mi NNW 4.6 mph - N/A   Overcast
8:15 AM 52.7 °F 52.7 °F 100% 30.05 in 1.5 mi NNW 3.5 mph - N/A   Overcast
8:35 AM 54.1 °F 54.1 °F 100% 30.05 in 4.0 mi NW 5.8 mph - N/A   Scattered Clouds
8:55 AM 55.0 °F 55.0 °F 100% 30.05 in 10.0 mi NW 4.6 mph - N/A   Scattered Clouds
9:15 AM 56.8 °F 55.8 °F 96% 30.06 in 10.0 mi Calm Calm - N/A   Clear
9:35 AM 58.3 °F 53.8 °F 85% 30.06 in 10.0 mi NNW 4.6 mph - N/A   Clear
9:55 AM 59.5 °F 50.7 °F 73% 30.06 in 10.0 mi North 3.5 mph - N/A   Clear
10:15 AM 60.4 °F 51.1 °F 71% 30.07 in 10.0 mi NNW 5.8 mph - N/A   Clear
10:35 AM 62.1 °F 49.3 °F 63% 30.07 in 10.0 mi NNW 3.5 mph - N/A   Clear
10:55 AM 62.8 °F 48.4 °F 59% 30.07 in 10.0 mi NNW 4.6 mph - N/A   Clear
11:15 AM 63.3 °F 46.6 °F 54% 30.07 in 10.0 mi NNE 3.5 mph - N/A   Scattered Clouds
11:35 AM 63.5 °F 45.0 °F 51% 30.07 in 10.0 mi North 3.5 mph - N/A   Scattered Clouds
11:55 AM 65.3 °F 45.5 °F 49% 30.07 in 10.0 mi NNW 3.5 mph - N/A   Scattered Clouds
12:15 PM 65.3 °F 43.7 °F 46% 30.06 in 10.0 mi NNW 5.8 mph - N/A   Clear
12:35 PM 67.1 °F 42.1 °F 40% 30.06 in 10.0 mi North 4.6 mph - N/A   Clear
12:55 PM 67.3 °F 41.5 °F 39% 30.05 in 10.0 mi NNE 3.5 mph - N/A   Clear
1:15 PM 67.6 °F 41.5 °F 39% 30.04 in 10.0 mi NNE 4.6 mph - N/A   Clear
1:35 PM 68.2 °F 39.6 °F 35% 30.03 in 10.0 mi North 4.6 mph - N/A   Clear
1:55 PM 69.1 °F 40.1 °F 35% 30.02 in 10.0 mi North 3.5 mph - N/A   Clear
2:15 PM 69.4 °F 39.7 °F 34% 30.02 in 10.0 mi ENE 4.6 mph - N/A   Clear
2:35 PM 69.6 °F 39.0 °F 33% 30.01 in 10.0 mi NE 4.6 mph - N/A   Clear
2:55 PM 70.7 °F 37.4 °F 30% 30.01 in 10.0 mi North 4.6 mph - N/A   Clear
3:15 PM 70.3 °F 39.6 °F 33% 30.01 in 10.0 mi NE 5.8 mph - N/A   Clear
3:35 PM 71.1 °F 38.7 °F 31% 30.01 in 10.0 mi ENE 5.8 mph - N/A   Clear
3:55 PM 70.7 °F 38.7 °F 31% 30.01 in 10.0 mi North 4.6 mph - N/A   Clear
4:15 PM 70.5 °F 36.5 °F 29% 30.00 in 10.0 mi Calm Calm - N/A   Clear
4:35 PM 69.8 °F 33.6 °F 26% 30.01 in 10.0 mi NE 5.8 mph - N/A   Clear
4:55 PM 69.3 °F 34.0 °F 27% 30.01 in 10.0 mi ENE 5.8 mph - N/A   Clear
5:15 PM 68.2 °F 34.2 °F 28% 30.01 in 10.0 mi ENE 8.1 mph - N/A   Clear
5:35 PM 67.3 °F 35.4 °F 31% 30.01 in 10.0 mi ENE 6.9 mph - N/A   Clear
5:55 PM 66.2 °F 36.1 °F 33% 30.01 in 10.0 mi ENE 8.1 mph - N/A   Clear
6:15 PM 63.9 °F 37.9 °F 38% 30.01 in 10.0 mi East 4.6 mph - N/A   Clear
6:35 PM 61.9 °F 38.3 °F 42% 30.01 in 10.0 mi East 4.6 mph - N/A   Clear
6:55 PM 60.3 °F 38.8 °F 45% 30.01 in 10.0 mi East 4.6 mph - N/A   Clear
7:15 PM 59.0 °F 39.2 °F 48% 30.01 in 10.0 mi East 5.8 mph - N/A   Clear
7:35 PM 58.6 °F 39.4 °F 49% 30.01 in 10.0 mi East 4.6 mph - N/A   Clear
7:55 PM 58.3 °F 40.1 °F 51% 30.01 in 10.0 mi East 4.6 mph - N/A   Clear
8:15 PM 57.6 °F 41.0 °F 54% - 10.0 mi East 4.6 mph - N/A   Clear
8:35 PM 56.8 °F 41.9 °F 57% 30.02 in 10.0 mi East 4.6 mph - N/A   Clear
8:55 PM 56.3 °F 43.0 °F 61% 30.01 in 10.0 mi East 4.6 mph - N/A   Clear
9:15 PM 56.1 °F 43.9 °F 64% 30.01 in 10.0 mi East 3.5 mph - N/A   Clear
9:35 PM 53.8 °F 44.2 °F 70% 30.01 in 10.0 mi East 3.5 mph - N/A   Clear
9:55 PM 53.8 °F 44.1 °F 70% 30.01 in 10.0 mi East 3.5 mph - N/A   Clear
10:15 PM 50.7 °F 44.1 °F 78% 30.01 in 10.0 mi Calm Calm - N/A   Clear
10:35 PM 51.8 °F 44.4 °F 76% 30.01 in 10.0 mi Calm Calm - N/A   Clear
10:55 PM 53.1 °F 45.0 °F 74% 30.01 in 10.0 mi Calm Calm - N/A   Clear
11:15 PM 48.9 °F 46.2 °F 90% 30.01 in 10.0 mi Calm Calm - N/A   Clear
11:35 PM 46.8 °F 45.5 °F 95% 30.01 in 10.0 mi Calm Calm - N/A   Clear
11:55 PM 46.8 °F 46.4 °F 99% 30.01 in 10.0 mi Calm Calm - N/A   Clear